Location: STAR School
(35.3054°N, 111.2976°W)
Time: 12:58:43
(UTC-07:00)

Transit 2A Rocket - Visible Passes

Search period start: 15 October 2019 00:00
Search period end: 25 October 2019 00:00
Orbit: 593 x 910 km, 66.7° (Epoch: 15 October)

Date Brightness Start Highest point End Pass type
(mag) Time Alt. Az. Time Alt. Az. Time Alt. Az.
15 Oct 7.7 04:55:40 10° SSE 04:59:16 19° ESE 05:02:41 10° ENE visible
16 Oct 4.9 05:53:40 10° SSW 05:59:00 85° WNW 06:03:53 10° NNE visible
17 Oct 5.8 05:11:22 10° S 05:16:31 51° ESE 05:21:16 10° NE visible
18 Oct 6.9 04:29:40 10° SSE 04:34:07 27° ESE 04:38:16 10° NE visible
19 Oct 7.7 03:48:57 10° SE 03:51:46 15° ESE 03:54:29 10° ENE visible
19 Oct 4.9 05:28:47 10° SW 05:33:58 57° WNW 05:38:42 10° NNE visible
20 Oct 4.9 04:48:01 22° SSW 04:51:27 78° ESE 04:56:16 10° NNE visible
21 Oct 6.0 04:08:23 39° SE 04:09:00 41° ESE 04:13:33 10° NE visible
21 Oct 6.1 05:48:24 13° W 05:51:37 22° NW 05:55:18 10° N visible
22 Oct 7.3 03:28:21 18° E 03:28:21 18° E 03:30:21 10° ENE visible
22 Oct 5.3 05:08:20 36° WNW 05:08:56 38° WNW 05:13:24 10° N visible
23 Oct 5.6 04:28:00 42° N 04:28:00 42° N 04:31:10 10° NNE visible
24 Oct 7.1 03:47:27 18° NE 03:47:27 18° NE 03:48:38 10° NE visible
24 Oct 6.6 05:27:24 15° NW 05:27:24 15° NW 05:29:28 10° NNW visible
